OBJECT BD (43809 NORAD) Tracking and Keplerian Element Data

This shows tracking and keplerian element data for the satellite.

Feedback or suggestion? Click here.




ElementValue
Catalog43809
NameOBJECT BD
Epoch Orbit642
Epoch Day17.78701037
Epoch Year2019
RAAN91.5108
Inclination97.7623
Eccentricity0.0016595
Argument of Perigee115.5366
Mean Anonmoly244.7573
Mean Motion14.95313038
Decay Rate-1.35E-06
L11 43809U 18099BD 19017.78701037 -.00000135 00000-0 -69808-5 0 9999
L22 43809 97.7623 91.5108 0016595 115.5366 244.7573 14.95313038 6428

Live tracking and technical data element details for OBJECT BD (NORAD 43809). OBJECT BD can be tracked NOW for your location showing map with azimuth and elevation plus other details from your city location.

Track the satellite on the map from your city or location and see movement details for azimuth, elevation, latitude, longitude, range, height, and movement on the map or in text.







IsCatalogInMostPopularTable: catalog: 43809, numindb: 20
Update: records affected: 1



GetName: 43809 OBJECT BD

Hit Count: updated at: Wed, 23 Jan 2019 03:18:41 GMT